DW8909 Weather Reports


time (UTC)temp
C
wind
direction
speed
KPH
gust
KPH
rain 1hr
cm
rain 24hr
cm
rain mn
cm
humidity
%
barometer
mb
20260507224512 12 50 1.6 4.8 0.00 0.00 0.00 83 1016.4
20260507223007 12 49 1.6 4.8 0.00 0.00 0.00 83 1016.4
20260507221507 12 63 0.0 4.8 0.00 0.00 0.00 83 1016.5
20260507220011 12 44 0.0 4.8 0.00 0.00 0.00 83 1016.6
20260507214506 12 18 0.0 4.8 0.00 0.00 0.00 83 1016.5
20260507213003 12 14 3.2 8.0 0.00 0.00 0.00 82 1016.5
20260507211605 12 38 3.2 6.4 0.00 0.00 0.00 82 1016.4
20260507210001 12 68 1.6 6.4 0.00 0.00 0.00 82 1016.4
20260507204501 12 46 1.6 4.8 0.00 0.00 0.00 81 1016.4
20260507203132 12 25 3.2 9.7 0.00 0.00 0.00 81 1016.4
20260507201600 12 46 1.6 6.4 0.00 0.00 0.00 80 1016.3
20260507200100 12 46 1.6 8.0 0.00 0.00 0.00 80 1016.2
20260507194617 12 40 3.2 8.0 0.00 0.00 0.00 79 1016.1
20260507193058 12 38 3.2 9.7 0.00 0.00 0.00 79 1016.0
20260507191554 12 360 3.2 12.9 0.00 0.00 0.00 79 1015.8
20260507190100 12 33 4.8 14.5 0.00 0.00 0.00 79 1015.8
20260507184553 12 70 4.8 11.3 0.00 0.00 0.00 78 1015.8
20260507183052 12 14 3.2 11.3 0.00 0.00 0.00 78 1015.8
20260507181552 12 32 3.2 9.7 0.00 0.00 0.00 77 1015.8
20260507180051 12 15 3.2 11.3 0.00 0.00 0.00 76 1015.8
20260507174552 12 29 3.2 12.9 0.00 0.00 0.00 76 1015.9
20260507173123 12 9 1.6 9.7 0.00 0.00 0.00 76 1016.0
20260507171548 12 49 1.6 11.3 0.00 0.00 0.00 75 1015.9
20260507170050 12 74 4.8 11.3 0.00 0.00 0.00 74 1016.0
20260507164547 12 360 4.8 14.5 0.00 0.00 0.00 74 1016.1
20260507163046 12 57 4.8 14.5 0.00 0.00 0.00 73 1016.0
20260507161550 12 30 4.8 14.5 0.00 0.00 0.00 72 1016.1
20260507160051 12 17 6.4 12.9 0.00 0.00 0.00 72 1016.0
20260507154544 12 28 6.4 19.3 0.00 0.00 0.00 72 1015.9
20260507153044 12 44 4.8 12.9 0.00 0.00 0.00 72 1016.0
20260507151542 12 26 4.8 14.5 0.00 0.00 0.00 71 1015.8
20260507150043 13 269 3.2 17.7 0.00 0.00 0.00 70 1015.9
20260507144541 13 71 3.2 14.5 0.00 0.00 0.00 69 1015.8
20260507143054 13 40 4.8 16.1 0.00 0.00 0.00 68 1015.9
20260507141550 14 38 6.4 17.7 0.00 0.00 0.00 66 1015.9
20260507140038 15 51 8.0 20.9 0.00 0.00 0.00 64 1016.0
20260507134538 15 57 6.4 17.7 0.00 0.00 0.00 65 1016.0
20260507133104 15 60 6.4 17.7 0.00 0.00 0.00 66 1016.1
20260507131537 15 5 4.8 19.3 0.00 0.00 0.00 66 1016.1
20260507130038 15 355 4.8 14.5 0.00 0.00 0.00 66 1016.1
20260507124533 15 53 4.8 16.1 0.00 0.00 0.00 65 1016.1
20260507123039 15 43 4.8 17.7 0.00 0.00 0.00 63 1016.0
20260507121533 15 25 4.8 16.1 0.00 0.00 0.00 64 1016.0
20260507120035 15 22 6.4 17.7 0.00 0.00 0.00 64 1016.0
20260507114532 15 34 4.8 17.7 0.00 0.00 0.00 63 1016.0
20260507113034 15 111 4.8 14.5 0.00 0.00 0.00 64 1015.9
20260507111526 15 51 3.2 17.7 0.00 0.00 0.00 65 1016.0
20260507110022 14 355 4.8 16.1 0.00 0.00 0.00 65 1016.1
20260507104519 14 62 3.2 12.9 0.00 0.00 0.00 66 1016.1
20260507103014 14 44 4.8 11.3 0.00 0.00 0.00 65 1016.1
20260507101513 14 52 3.2 12.9 0.00 0.00 0.00 65 1016.1
20260507100009 14 23 4.8 12.9 0.00 0.00 0.00 66 1016.1
20260507094506 13 58 3.2 14.5 0.00 0.00 0.00 67 1016.0
20260507093001 13 246 3.2 9.7 0.00 0.00 0.00 67 1015.9
20260507091558 13 85 3.2 12.9 0.00 0.00 0.00 67 1015.7
20260507090053 13 333 1.6 9.7 0.00 0.00 0.00 68 1015.6
20260507084550 12 5 4.8 17.7 0.00 0.00 0.00 66 1015.6
20260507083046 12 40 1.6 14.5 0.00 0.00 0.00 70 1015.6
20260507081543 13 30 3.2 11.3 0.00 0.00 0.00 69 1015.5
20260507080039 12 50 3.2 9.7 0.00 0.00 0.00 69 1015.4
20260507074535 12 90 3.2 9.7 0.00 0.00 0.00 71 1015.3
20260507073031 11 74 3.2 14.5 0.00 0.00 0.00 75 1015.3
20260507071526 11 65 4.8 12.9 0.00 0.00 0.00 79 1015.3
20260507070035 10 38 4.8 11.3 0.00 0.00 0.00 81 1015.1
20260507064519 10 83 1.6 11.3 0.00 0.00 0.00 83 1015.1
20260507063017 10 355 1.6 8.0 0.00 0.00 0.00 84 1015.1
20260507061516 9 61 1.6 9.7 0.00 0.00 0.00 85 1015.0
20260507060019 9 73 3.2 12.9 0.00 0.00 0.00 87 1014.9
20260507054513 8 52 3.2 8.0 0.00 0.00 0.00 87 1014.8
20260507053011 8 63 1.6 4.8 0.00 0.00 0.00 88 1014.8
20260507051513 8 51 3.2 8.0 0.00 0.00 0.00 88 1014.6
20260507050015 8 38 1.6 8.0 0.00 0.00 0.00 88 1014.5
20260507044506 8 69 1.6 8.0 0.00 0.00 0.00 87 1014.3
20260507043002 8 59 3.2 9.7 0.00 0.00 0.00 87 1014.2
20260507041558 8 84 3.2 8.0 0.00 0.00 0.00 87 1014.1
20260507034602 8 69 3.2 9.7 0.00 0.00 0.00 86 1013.9
20260507033104 8 56 3.2 9.7 0.00 0.00 0.00 86 1013.7
20260507031558 8 78 3.2 11.3 0.00 0.00 0.00 85 1013.6
20260507030104 8 72 3.2 8.0 0.00 0.00 0.00 84 1013.5
20260507024605 8 44 3.2 9.7 0.00 0.00 0.00 83 1013.4
20260507023042 8 49 3.2 12.9 0.00 0.00 0.00 82 1013.4
20260507021550 8 42 4.8 12.9 0.00 0.00 0.00 82 1013.4
20260507020051 9 76 3.2 14.5 0.00 0.00 0.00 81 1013.2
20260507014548 9 53 3.2 9.7 0.00 0.00 0.00 80 1013.2
20260507013039 9 58 3.2 8.0 0.00 0.00 0.00 78 1013.2
20260507011535 10 65 3.2 9.7 0.00 0.00 0.00 77 1013.2
20260507010035 10 86 3.2 14.5 0.00 0.00 0.00 76 1013.1
20260507004526 10 38 6.4 11.3 0.00 0.00 0.00 76 1013.1
20260507003023 10 84 4.8 12.9 0.00 0.00 0.00 75 1013.1
20260507001526 11 49 4.8 14.5 0.00 0.00 0.00 74 1013.0
20260507000018 11 49 4.8 14.5 0.00 0.00 0.00 73 1012.9
20260506234516 11 70 4.8 12.9 0.00 0.00 0.00 72 1012.8
20260506233014 11 63 3.2 11.3 0.00 0.00 0.00 72 1012.7
20260506231512 11 51 4.8 14.5 0.00 0.00 0.00 73 1012.6
20260506230010 11 42 4.8 11.3 0.00 0.00 0.00 75 1012.5